Location: Oshawa
(43.9000°N, 78.8670°W)
Time: 00:12:42
(UTC-04:00)

Explorer 7 - Visible Passes

Search period start: 26 April 2017 00:00
Search period end: 06 May 2017 00:00
Orbit: 486 x 684 km, 50.3° (Epoch: 24 April)

Date Brightness Start Highest point End Pass type
(mag) Time Alt. Az. Time Alt. Az. Time Alt. Az.
26 Apr 9.1 00:23:56 10° WNW 00:25:43 23° NW 00:25:43 23° NW visible
26 Apr 8.2 21:07:16 10° W 21:11:51 45° NNW 21:16:12 10° ENE visible
26 Apr 8.3 22:48:53 10° WNW 22:53:12 37° N 22:54:52 27° NE visible
27 Apr 9.3 00:29:49 10° WNW 00:31:14 20° WNW 00:31:14 20° WNW visible
27 Apr 8.4 21:13:25 10° W 21:17:54 39° N 21:22:09 10° ENE visible
27 Apr 8.0 22:54:52 10° WNW 22:59:15 41° NNE 23:00:20 35° NE visible
28 Apr 9.4 00:35:43 10° WNW 00:36:42 16° WNW 00:36:42 16° WNW visible
28 Apr 8.5 21:19:33 10° WNW 21:23:59 37° N 21:28:10 10° ENE visible
28 Apr 7.6 23:00:48 10° WNW 23:05:17 50° NNE 23:05:47 47° NE visible
29 Apr 9.7 00:41:41 10° WNW 00:42:09 13° WNW 00:42:09 13° WNW visible
29 Apr 8.4 21:25:39 10° WNW 21:30:04 37° N 21:34:15 10° ENE visible
29 Apr 7.2 23:06:42 10° WNW 23:11:14 65° NNE 23:11:14 65° NNE visible
30 Apr 8.2 21:31:40 10° WNW 21:36:08 40° N 21:40:18 10° ENE visible
30 Apr 7.2 23:12:34 10° WNW 23:16:40 70° WNW 23:16:40 70° WNW visible
01 May 7.9 21:37:37 10° WNW 21:42:11 45° NNE 21:45:46 14° E visible
01 May 7.6 23:18:29 10° WNW 23:22:07 50° W 23:22:07 50° W visible
02 May 7.5 21:43:32 10° WNW 21:48:11 56° NNE 21:51:14 19° E visible
02 May 8.2 23:24:29 10° WNW 23:27:36 33° WSW 23:27:36 33° WSW visible
03 May 7.1 21:49:25 10° WNW 21:54:08 75° NNE 21:56:43 25° ESE visible
03 May 8.8 23:30:39 10° WNW 23:33:05 22° WSW 23:33:05 22° WSW visible
04 May 7.0 21:55:18 10° WNW 22:00:01 79° SSW 22:02:15 29° SE visible
04 May 9.3 23:37:09 10° W 23:38:37 15° WSW 23:38:37 15° WSW visible
05 May 7.4 22:01:13 10° WNW 22:05:49 53° SW 22:07:48 29° SSE visible
